When you browse on this site, cookies collect data to enhance your experience and personalize the content and advertising you see.
Visit our Privacy Policy to learn more. By continuing to use the site, you agree to this use of cookies and data.
  • In Portugal
  • List of Countries
  • For 7 days
  • Water Temperature
  • Weather Map
  • Weather Widgets
  • user-avatar
    Login

    Hourly Weather Starosele

    Today, 18 September, Wednesday

    Time Temperature Precipitation Wind Pressure Humidity
    00:00 +7°C° 0.2 mm 4 mps 733 mmHg 90%
    01:00 +7°C° 0.2 mm 4 mps 732 mmHg 91%
    02:00 +6°C° 0.2 mm 4 mps 732 mmHg 91%
    03:00 +5°C° 0 mm 4 mps 732 mmHg 92%
    04:00 +5°C° 0 mm 3 mps 731 mmHg 93%
    05:00 +4°C° 0 mm 3 mps 731 mmHg 95%
    06:00 +4°C° 0 mm 3 mps 731 mmHg 93%
    07:00 +5°C° 0 mm 3 mps 732 mmHg 91%
    08:00 +5°C° 0 mm 4 mps 732 mmHg 89%
    09:00 +6°C° 0 mm 4 mps 732 mmHg 87%
    10:00 +6°C° 0 mm 4 mps 733 mmHg 86%
    11:00 +6°C° 0 mm 5 mps 733 mmHg 84%
    12:00 +7°C° 0.1 mm 5 mps 734 mmHg 84%
    13:00 +7°C° 0.1 mm 5 mps 734 mmHg 84%
    14:00 +7°C° 0.1 mm 5 mps 735 mmHg 84%
    15:00 +8°C° 0.1 mm 5 mps 735 mmHg 82%
    16:00 +8°C° 0.1 mm 5 mps 736 mmHg 81%
    17:00 +10°C° 0.1 mm 4 mps 736 mmHg 79%
    18:00 +8°C° 0 mm 4 mps 737 mmHg 83%
    19:00 +7°C° 0 mm 4 mps 737 mmHg 86%
    20:00 +7°C° 0 mm 3 mps 738 mmHg 90%
    21:00 +5°C° 0 mm 3 mps 738 mmHg 92%
    22:00 +5°C° 0 mm 3 mps 739 mmHg 94%
    23:00 +4°C° 0 mm 3 mps 739 mmHg 96%

    Tomorrow, 19 September, Thursday

    Time Temperature Precipitation Wind Pressure Humidity
    00:00 +4°C° 0 mm 3 mps 740 mmHg 96%
    01:00 +4°C° 0 mm 3 mps 740 mmHg 97%
    02:00 +4°C° 0 mm 3 mps 741 mmHg 97%
    03:00 +4°C° 0 mm 3 mps 741 mmHg 97%
    04:00 +4°C° 0 mm 3 mps 741 mmHg 97%
    05:00 +4°C° 0 mm 3 mps 742 mmHg 97%
    06:00 +5°C° 0 mm 3 mps 742 mmHg 95%
    07:00 +5°C° 0 mm 3 mps 743 mmHg 93%
    08:00 +7°C° 0 mm 3 mps 743 mmHg 91%
    09:00 +8°C° 0 mm 3 mps 744 mmHg 86%
    10:00 +8°C° 0 mm 3 mps 744 mmHg 81%
    11:00 +9°C° 0 mm 3 mps 745 mmHg 76%
    12:00 +10°C° 0 mm 3 mps 745 mmHg 69%
    13:00 +11°C° 0 mm 3 mps 745 mmHg 62%
    14:00 +12°C° 0 mm 3 mps 745 mmHg 55%
    15:00 +12°C° 0 mm 2 mps 745 mmHg 58%
    16:00 +12°C° 0 mm 2 mps 745 mmHg 62%
    17:00 +12°C° 0 mm 2 mps 745 mmHg 65%
    18:00 +9°C° 0 mm 2 mps 745 mmHg 72%
    19:00 +8°C° 0 mm 2 mps 744 mmHg 79%
    20:00 +6°C° 0 mm 2 mps 744 mmHg 85%
    21:00 +6°C° 0 mm 2 mps 744 mmHg 88%
    22:00 +6°C° 0 mm 2 mps 744 mmHg 90%
    23:00 +6°C° 0 mm 2 mps 744 mmHg 92%

    Day after tomorrow, 20 September, Friday

    Time Temperature Precipitation Wind Pressure Humidity
    00:00 +5°C° 0.1 mm 3 mps 744 mmHg 94%
    01:00 +5°C° 0.1 mm 3 mps 744 mmHg 95%
    02:00 +5°C° 0.1 mm 3 mps 744 mmHg 96%
    03:00 +5°C° 0.2 mm 4 mps 743 mmHg 93%
    04:00 +5°C° 0.2 mm 4 mps 743 mmHg 91%
    05:00 +5°C° 0.2 mm 5 mps 743 mmHg 88%
    06:00 +5°C° 0.1 mm 5 mps 744 mmHg 87%
    07:00 +3°C° 0.1 mm 5 mps 744 mmHg 86%
    08:00 +3°C° 0.1 mm 6 mps 744 mmHg 85%
    09:00 +3°C° 0.1 mm 6 mps 744 mmHg 85%
    10:00 +3°C° 0.1 mm 5 mps 745 mmHg 85%
    11:00 +5°C° 0.1 mm 5 mps 745 mmHg 84%
    12:00 +5°C° 0.1 mm 5 mps 746 mmHg 84%
    13:00 +5°C° 0.1 mm 5 mps 746 mmHg 83%
    14:00 +5°C° 0.1 mm 5 mps 746 mmHg 83%
    15:00 +6°C° 0.1 mm 5 mps 746 mmHg 81%
    16:00 +6°C° 0.1 mm 5 mps 747 mmHg 80%
    17:00 +6°C° 0.1 mm 4 mps 747 mmHg 78%
    18:00 +5°C° 0 mm 4 mps 748 mmHg 82%
    19:00 +4°C° 0 mm 4 mps 748 mmHg 87%
    20:00 +4°C° 0 mm 4 mps 749 mmHg 91%
    21:00 +3°C° 0 mm 3 mps 749 mmHg 92%
    22:00 +3°C° 0 mm 3 mps 749 mmHg 94%
    23:00 +2°C° 0 mm 3 mps 749 mmHg 95%

    21 September, Saturday

    Time Temperature Precipitation Wind Pressure Humidity
    00:00 +2°C° 0 mm 3 mps 750 mmHg 96%
    01:00 +1°C° 0 mm 3 mps 750 mmHg 96%
    02:00 +2°C° 0 mm 2 mps 750 mmHg 96%
    03:00 +2°C° 0 mm 2 mps 751 mmHg 97%
    04:00 +2°C° 0 mm 2 mps 751 mmHg 97%
    05:00 +1°C° 0 mm 2 mps 751 mmHg 97%
    06:00 +2°C° 0 mm 2 mps 751 mmHg 94%
    07:00 +2°C° 0 mm 3 mps 751 mmHg 91%
    08:00 +3°C° 0 mm 3 mps 752 mmHg 88%
    09:00 +4°C° 0 mm 3 mps 752 mmHg 79%
    10:00 +7°C° 0 mm 3 mps 752 mmHg 70%
    11:00 +8°C° 0 mm 3 mps 752 mmHg 61%
    12:00 +8°C° 0.1 mm 4 mps 751 mmHg 62%
    13:00 +8°C° 0.1 mm 4 mps 751 mmHg 64%
    14:00 +8°C° 0.1 mm 5 mps 751 mmHg 66%
    15:00 +7°C° 0.5 mm 5 mps 750 mmHg 74%
    16:00 +7°C° 0.5 mm 5 mps 750 mmHg 81%
    17:00 +6°C° 0.5 mm 5 mps 749 mmHg 89%
    18:00 +6°C° 0.1 mm 5 mps 749 mmHg 88%
    19:00 +7°C° 0.1 mm 5 mps 749 mmHg 86%
    20:00 +7°C° 0.1 mm 5 mps 748 mmHg 84%
    21:00 +7°C° 0 mm 5 mps 748 mmHg 85%
    22:00 +8°C° 0 mm 5 mps 748 mmHg 86%
    23:00 +8°C° 0 mm 5 mps 747 mmHg 88%

    22 September, Sunday

    Time Temperature Precipitation Wind Pressure Humidity
    00:00 +9°C° 0 mm 5 mps 747 mmHg 88%
    01:00 +9°C° 0 mm 5 mps 747 mmHg 89%
    02:00 +9°C° 0 mm 5 mps 747 mmHg 90%
    03:00 +9°C° 0 mm 5 mps 747 mmHg 91%
    04:00 +9°C° 0 mm 5 mps 747 mmHg 92%
    05:00 +8°C° 0 mm 5 mps 747 mmHg 94%
    06:00 +9°C° 0 mm 6 mps 746 mmHg 91%
    07:00 +9°C° 0 mm 6 mps 746 mmHg 89%
    08:00 +10°C° 0 mm 7 mps 746 mmHg 86%
    09:00 +10°C° 0 mm 6 mps 746 mmHg 86%
    10:00 +10°C° 0 mm 6 mps 746 mmHg 86%
    11:00 +11°C° 0 mm 6 mps 746 mmHg 86%
    12:00 +11°C° 0 mm 6 mps 746 mmHg 85%
    13:00 +11°C° 0 mm 6 mps 746 mmHg 83%
    14:00 +13°C° 0 mm 6 mps 746 mmHg 82%
    15:00 +13°C° 0 mm 5 mps 747 mmHg 81%
    16:00 +13°C° 0 mm 4 mps 747 mmHg 81%
    17:00 +13°C° 0 mm 4 mps 747 mmHg 80%
    18:00 +11°C° 0 mm 3 mps 747 mmHg 79%
    19:00 +10°C° 0 mm 3 mps 748 mmHg 77%
    20:00 +9°C° 0 mm 2 mps 748 mmHg 76%
    21:00 +8°C° 0 mm 2 mps 748 mmHg 72%
    22:00 +7°C° 0 mm 2 mps 748 mmHg 68%
    23:00 +7°C° 0 mm 1 mps 748 mmHg 64%

    23 September, Monday

    Time Temperature Precipitation Wind Pressure Humidity
    00:00 +7°C° 0 mm 1 mps 749 mmHg 64%
    01:00 +6°C° 0 mm 1 mps 749 mmHg 64%
    02:00 +6°C° 0 mm 1 mps 749 mmHg 64%
    03:00 +6°C° 0 mm 1 mps 749 mmHg 65%
    04:00 +5°C° 0 mm 2 mps 749 mmHg 65%
    05:00 +5°C° 0 mm 2 mps 749 mmHg 66%
    06:00 +5°C° 0 mm 2 mps 749 mmHg 65%
    07:00 +6°C° 0 mm 2 mps 748 mmHg 64%
    08:00 +5°C° 0 mm 3 mps 748 mmHg 64%
    09:00 +7°C° 0 mm 3 mps 748 mmHg 63%
    10:00 +8°C° 0 mm 3 mps 748 mmHg 62%
    11:00 +8°C° 0 mm 3 mps 748 mmHg 61%
    12:00 +9°C° 0 mm 3 mps 747 mmHg 61%
    13:00 +9°C° 0 mm 3 mps 747 mmHg 62%
    14:00 +9°C° 0 mm 3 mps 746 mmHg 62%
    15:00 +9°C° 0 mm 3 mps 746 mmHg 63%
    16:00 +9°C° 0 mm 3 mps 746 mmHg 64%
    17:00 +8°C° 0 mm 4 mps 746 mmHg 65%
    18:00 +8°C° 0 mm 4 mps 746 mmHg 66%
    19:00 +7°C° 0 mm 4 mps 745 mmHg 67%
    20:00 +7°C° 0 mm 4 mps 745 mmHg 68%
    21:00 +7°C° 0 mm 4 mps 745 mmHg 70%
    22:00 +6°C° 0 mm 4 mps 745 mmHg 72%
    23:00 +6°C° 0 mm 4 mps 745 mmHg 74%
    Show more